Edinburg, TX

2:59 PM CDT on April 27, 2017 (GMT -0500)
Edinburg

Weather History for KEBG - October, 2012

Change the Weather History Date:

Sunday, October 21, 2012

  Actual Average (KMFE) Record (KMFE)
Temperature  
Mean Temperature 84 °F -  
Max Temperature 95 °F 83 °F 95 °F (2004)
Min Temperature 72 °F 64 °F 46 °F (1964)
Cooling Degree Days 18    
Growing Degree Days 34 (Base 50)    
Moisture  
Dew Point 69 °F    
Average Humidity 65    
Maximum Humidity 92    
Minimum Humidity 34    
Precipitation  
Precipitation 0.00 in - - ()
Sea Level Pressure  
Sea Level Pressure 29.87 in    
Wind  
Wind Speed 10 mph (SE)    
Max Wind Speed 21 mph    
Max Gust Speed 28 mph    
Visibility 7 miles    
Events      
Averages and records for this station are not official NWS values.
T = Trace of Precipitation, MM = Missing Value Source: NWS Daily Summary

Daily Weather History Graph

Daily Weather History Graph

Search for Another Location

Airport or City:

Trip Planner

Search our weather history database for the weather conditions in past years. The results will help you decide how hot, cold, wet, or windy it might be!

Date:

Astronomy

Oct. 21, 2012 Rise Set
Actual Time 7:35 AM CDT 6:58 PM CDT
Civil Twilight 7:11 AM CDT 7:21 PM CDT
Nautical Twilight 6:44 AM CDT 7:48 PM CDT
Astronomical Twilight 6:17 AM CDT 8:15 PM CDT
Moon 1:46 PM CDT (10/21) 12:01 AM CDT (10/21)
Length of Visible Light 12h 10m
Length of Day
11h 23m
Waxing Crescent, 45% of the Moon is Illuminated
Oct 21
Waxing Crescent
Oct 21
First Quarter
Oct 29
Full
Nov 6
Last Quarter
Nov 13
New

Hourly Weather History & Observations

Time (CDT) Temp. Heat Index Dew Point Humidity Pressure Visibility Wind Dir Wind Speed Gust Speed Precip Events Conditions
12:35 AM 79.7 °F - 72.9 °F 80% 29.86 in 10.0 mi SSE 9.2 mph - N/A   Clear
12:55 AM 79.3 °F - 72.9 °F 80% 29.86 in 10.0 mi SSE 9.2 mph - N/A   Clear
1:15 AM 79.2 °F - 72.9 °F 81% 29.86 in 7.0 mi SSE 8.1 mph - N/A   Clear
1:35 AM 78.8 °F - 72.9 °F 82% 29.86 in 7.0 mi SSE 8.1 mph - N/A   Clear
1:55 AM 78.8 °F - 72.9 °F 82% 29.85 in 7.0 mi SSE 6.9 mph - N/A   Clear
2:15 AM 78.1 °F - 72.9 °F 84% 29.85 in 7.0 mi SSE 6.9 mph - N/A   Clear
2:35 AM 77.9 °F - 72.7 °F 84% 29.85 in 7.0 mi SSE 5.8 mph - N/A   Clear
2:55 AM 77.5 °F - 72.9 °F 85% 29.85 in 7.0 mi SSE 4.6 mph - N/A   Clear
3:15 AM 77.5 °F - 72.9 °F 85% 29.85 in 7.0 mi SSE 5.8 mph - N/A   Clear
3:35 AM 77.9 °F - 73.0 °F 85% 29.85 in 7.0 mi SSE 6.9 mph - N/A   Clear
3:55 AM 77.4 °F - 72.7 °F 85% 29.85 in 7.0 mi SE 5.8 mph - N/A   Clear
4:15 AM 77.2 °F - 72.7 °F 86% 29.85 in 7.0 mi SE 4.6 mph - N/A   Clear
4:35 AM 76.1 °F - 71.8 °F 86% 29.85 in 5.0 mi SE 4.6 mph - N/A   Clear
5:15 AM 74.7 °F - 71.1 °F 88% 29.85 in 5.0 mi SE 4.6 mph - N/A   Clear
5:55 AM 73.4 °F - 70.2 °F 90% 29.86 in 4.0 mi ESE 4.6 mph - N/A   Scattered Clouds
6:15 AM 73.4 °F - 70.3 °F 90% 29.86 in 4.0 mi Calm Calm - N/A   Mostly Cloudy
6:35 AM 73.9 °F - 70.9 °F 90% 29.87 in 4.0 mi ESE 3.5 mph - N/A   Mostly Cloudy
6:55 AM 72.7 °F - 69.8 °F 91% 29.87 in 3.0 mi Calm Calm - N/A   Scattered Clouds
7:15 AM 72.9 °F - 70.0 °F 91% 29.88 in 3.0 mi East 3.5 mph - N/A   Clear
7:35 AM 73.0 °F - 70.2 °F 91% 29.89 in 3.0 mi ESE 3.5 mph - N/A   Clear
7:55 AM 73.4 °F - 70.9 °F 92% 29.89 in 2.5 mi ESE 5.8 mph - N/A   Clear
8:15 AM 75.2 °F - 72.3 °F 91% 29.90 in 3.0 mi ESE 6.9 mph - N/A   Clear
8:35 AM 76.5 °F - 73.2 °F 90% 29.90 in 4.0 mi SE 8.1 mph - N/A   Clear
8:55 AM 78.1 °F - 73.4 °F 85% 29.90 in 5.0 mi SE 10.4 mph - N/A   Haze
9:15 AM 81.1 °F 86.2 °F 73.4 °F 77% 29.91 in 7.0 mi SE 13.8 mph 17.3 mph N/A   Clear
9:35 AM 83.7 °F 89.4 °F 72.5 °F 69% 29.91 in 5.0 mi SSE 17.3 mph 21.9 mph N/A   Haze
9:55 AM 85.1 °F 91.5 °F 72.5 °F 66% 29.92 in 7.0 mi SSE 16.1 mph 21.9 mph N/A   Clear
10:15 AM 85.6 °F 91.8 °F 72.1 °F 64% 29.92 in 7.0 mi SSE 17.3 mph 24.2 mph N/A   Clear
10:35 AM 86.9 °F 92.1 °F 70.5 °F 58% 29.92 in 10.0 mi SSE 18.4 mph 23.0 mph N/A   Clear
10:55 AM 88.3 °F 93.6 °F 70.2 °F 55% 29.92 in 7.0 mi SSE 20.7 mph 27.6 mph N/A   Clear
11:15 AM 88.9 °F 93.4 °F 69.1 °F 52% 29.92 in 7.0 mi SSE 18.4 mph 25.3 mph N/A   Clear
11:35 AM 90.0 °F 93.2 °F 67.5 °F 47% 29.91 in 7.0 mi SSE 18.4 mph 26.5 mph N/A   Clear
11:55 AM 90.9 °F 94.4 °F 67.3 °F 46% 29.91 in 7.0 mi SSE 20.7 mph 25.3 mph N/A   Clear
12:15 PM 92.8 °F 95.6 °F 66.2 °F 41% 29.90 in 10.0 mi SSE 16.1 mph 23.0 mph N/A   Clear
12:35 PM 92.5 °F 95.4 °F 66.4 °F 42% 29.90 in 10.0 mi SSE 19.6 mph 25.3 mph N/A   Clear
12:55 PM 93.0 °F 95.9 °F 66.0 °F 41% 29.89 in 10.0 mi SSE 17.3 mph 25.3 mph N/A   Clear
1:15 PM 93.6 °F 96.4 °F 66.2 °F 40% 29.88 in 7.0 mi SSE 17.3 mph 27.6 mph N/A   Scattered Clouds
1:35 PM 94.3 °F 96.7 °F 64.8 °F 38% 29.87 in 7.0 mi SSE 18.4 mph 24.2 mph N/A   Clear
1:55 PM 94.5 °F 96.1 °F 63.3 °F 36% 29.86 in 7.0 mi South 17.3 mph 25.3 mph N/A   Clear
2:15 PM 94.8 °F 97.1 °F 64.6 °F 37% 29.85 in 7.0 mi SE 15.0 mph 24.2 mph N/A   Clear
2:35 PM 95.0 °F 97.0 °F 64.0 °F 36% 29.84 in 7.0 mi SSE 15.0 mph 26.5 mph N/A   Clear
2:55 PM 95.2 °F 96.8 °F 63.5 °F 35% 29.84 in 7.0 mi SSE 19.6 mph 26.5 mph N/A   Clear
3:15 PM 95.0 °F 96.5 °F 63.7 °F 35% 29.83 in 7.0 mi SSE 13.8 mph 25.3 mph N/A   Clear
3:35 PM 95.5 °F 97.9 °F 64.6 °F 36% 29.83 in 7.0 mi SSE 17.3 mph 20.7 mph N/A   Clear
3:55 PM 95.4 °F 98.1 °F 65.1 °F 37% 29.83 in 7.0 mi SSE 13.8 mph 23.0 mph N/A   Clear
4:15 PM 94.6 °F 97.3 °F 65.7 °F 38% 29.83 in 7.0 mi SE 18.4 mph - N/A   Clear
4:35 PM 94.3 °F 95.3 °F 62.8 °F 35% 29.83 in 10.0 mi SE 16.1 mph 26.5 mph N/A   Clear
4:55 PM 94.1 °F 94.6 °F 61.9 °F 34% 29.83 in 7.0 mi SSE 18.4 mph 24.2 mph N/A   Clear
5:15 PM 93.2 °F 94.1 °F 63.0 °F 36% 29.83 in 7.0 mi SSE 15.0 mph - N/A   Clear
5:35 PM 92.3 °F 93.8 °F 64.0 °F 39% 29.84 in 7.0 mi SSE 17.3 mph 26.5 mph N/A   Clear
5:55 PM 91.4 °F 93.6 °F 65.7 °F 42% 29.84 in 10.0 mi SSE 18.4 mph 25.3 mph N/A   Clear
6:15 PM 90.0 °F 92.0 °F 65.7 °F 44% 29.84 in 10.0 mi SSE 15.0 mph 23.0 mph N/A   Clear
6:35 PM 88.7 °F 91.1 °F 66.4 °F 47% 29.85 in 10.0 mi SSE 13.8 mph - N/A   Clear
6:55 PM 87.3 °F 89.5 °F 66.2 °F 49% 29.86 in 10.0 mi SSE 15.0 mph 19.6 mph N/A   Clear
7:15 PM 85.8 °F 88.2 °F 66.2 °F 52% 29.87 in 10.0 mi SSE 12.7 mph - N/A   Clear
7:35 PM 85.1 °F 87.7 °F 66.9 °F 54% 29.87 in 7.0 mi SSE 11.5 mph - N/A   Clear
7:55 PM 83.7 °F 86.5 °F 67.3 °F 58% 29.88 in 10.0 mi SE 8.1 mph - N/A   Clear
8:15 PM 82.4 °F 85.2 °F 67.8 °F 61% 29.88 in 10.0 mi SE 8.1 mph - N/A   Clear
8:35 PM 81.7 °F 84.5 °F 68.0 °F 63% 29.88 in 10.0 mi SE 8.1 mph - N/A   Clear
8:55 PM 80.6 °F 83.4 °F 68.4 °F 66% 29.89 in 10.0 mi SE 9.2 mph - N/A   Clear
9:15 PM 80.1 °F 82.9 °F 69.1 °F 69% 29.89 in 10.0 mi SE 8.1 mph - N/A   Clear
9:35 PM 79.7 °F - 69.8 °F 72% 29.90 in 10.0 mi SE 9.2 mph - N/A   Clear
9:55 PM 78.8 °F - 70.0 °F 74% 29.90 in 10.0 mi SE 8.1 mph - N/A   Clear
10:15 PM 78.4 °F - 70.3 °F 76% 29.90 in 7.0 mi SE 9.2 mph - N/A   Clear
10:35 PM 78.3 °F - 70.7 °F 77% 29.90 in 10.0 mi SE 8.1 mph - N/A   Clear
10:55 PM 77.9 °F - 70.7 °F 78% 29.91 in 10.0 mi SE 9.2 mph - N/A   Clear
11:15 PM 77.9 °F - 70.9 °F 79% 29.91 in 7.0 mi SE 9.2 mph - N/A   Clear
11:35 PM 77.2 °F - 70.7 °F 80% 29.91 in 7.0 mi SE 6.9 mph - N/A   Clear
11:55 PM 76.8 °F - 70.7 °F 81% 29.91 in 10.0 mi SE 6.9 mph - N/A   Clear